CYGFM06 (41889 NORAD) Tracking and Keplerian Element Data

This shows tracking and keplerian element data for the satellite.

Feedback or suggestion? Click here.




ElementValue
Catalog41889
NameCYGFM06
Epoch Orbit32880
Epoch Day325.19293616
Epoch Year2022
RAAN294.2787
Inclination34.9584
Eccentricity0.0011509
Argument of Perigee67.5758
Mean Anonmoly292.6173
Mean Motion15.17969755
Decay Rate3.533E-05
L11 41889U 16078F 22325.19293616 .00003533 00000+0 17125-3 0 9995
L22 41889 34.9584 294.2787 0011509 67.5758 292.6173 15.17969755328804



Live tracking and technical data element details for CYGFM06 (NORAD 41889). CYGFM06 can be tracked NOW for your location showing map with azimuth and elevation plus other details from your city location.







IsCatalogInMostPopularTable: catalog: 41889, numindb: 603
Update: records affected: 1



GetName: 41889 CYGFM06

Hit Count: updated at: Wed, 04 Dec 2024 13:44:23 GMT